Location: Mactaquac Provincial Park
(45.9573°N, 66.8897°W)
Time: 04:04:38
(UTC-03:00)

CENTAUR R/B - Visible Passes

Search period start: 19 April 2014 00:00
Search period end: 29 April 2014 00:00
Orbit: 909 x 1280 km, 63.5° (Epoch: 14 April)

Date Brightness Start Highest point End Pass type
(mag) Time Alt. Az. Time Alt. Az. Time Alt. Az.
19 Apr 2.8 01:02:26 10° NW 01:09:49 82° WSW 01:09:49 82° WSW visible
19 Apr 4.6 02:54:33 10° WNW 02:57:00 17° W 02:57:00 17° W visible
19 Apr 4.4 22:23:42 10° NNW 22:29:45 27° NNE 22:35:52 11° E visible
20 Apr 3.0 00:14:18 10° NW 00:21:47 70° NE 00:23:02 61° E visible
20 Apr 4.1 02:05:33 10° NW 02:10:13 29° W 02:10:13 29° W visible
20 Apr 4.6 21:35:24 10° NNW 21:40:53 23° NNE 21:46:40 10° ENE visible
20 Apr 3.5 23:26:13 10° NNW 23:33:25 50° NE 23:36:17 35° E visible
21 Apr 3.4 01:17:02 10° NW 01:23:28 49° W 01:23:28 49° W visible
21 Apr 4.8 20:46:53 10° NW 20:51:55 20° N 20:57:14 10° NE visible
21 Apr 3.9 22:38:08 10° NNW 22:44:53 37° NE 22:49:34 20° E visible
22 Apr 2.8 00:28:45 10° NW 00:36:17 76° SW 00:36:45 74° SSW visible
22 Apr 4.7 02:21:12 10° WNW 02:23:56 16° W 02:23:56 16° W visible
22 Apr 4.3 21:50:00 10° NNW 21:56:12 29° NNE 22:02:45 10° E visible
22 Apr 3.0 23:40:35 10° NW 23:48:07 76° NE 23:50:04 54° ESE visible
23 Apr 4.1 01:32:00 10° NW 01:37:15 28° W 01:37:15 28° W visible
23 Apr 4.5 21:01:45 10° NNW 21:07:22 23° NNE 21:13:18 10° ENE visible
23 Apr 3.4 22:52:30 10° NW 22:59:47 54° NE 23:03:25 32° ESE visible
24 Apr 3.4 00:43:24 10° NW 00:50:33 46° WSW 00:50:36 46° WSW visible
24 Apr 3.8 22:04:26 10° NNW 22:11:18 40° NE 22:16:49 17° E visible
24 Apr 3.0 23:55:04 10° NW 00:02:34 69° WSW 00:04:00 58° S visible
25 Apr 4.8 01:47:57 10° WNW 01:51:11 15° W 01:51:11 15° W visible
25 Apr 4.2 21:16:19 10° NNW 21:22:39 30° NNE 21:29:21 10° E visible
25 Apr 2.9 23:06:53 10° NW 23:14:26 83° NE 23:17:25 43° SE visible
26 Apr 4.2 00:58:29 10° WNW 01:04:34 26° WSW 01:04:36 26° WSW visible
26 Apr 3.3 22:18:47 10° NW 22:26:09 59° NE 22:30:53 25° ESE visible
27 Apr 3.6 00:09:47 10° NW 00:16:47 41° WSW 00:18:04 39° SW visible
27 Apr 3.7 21:30:43 10° NNW 21:37:42 43° NE 21:44:22 13° ESE visible
27 Apr 3.2 23:21:23 10° NW 23:28:50 63° WSW 23:31:34 42° S visible
28 Apr 4.8 01:14:52 10° WNW 01:18:20 14° WSW 01:18:46 14° WSW visible
28 Apr 3.0 22:33:11 10° NW 22:40:45 90° NE 22:45:06 30° SE visible
